Probability
0 0 0 0 0 0 0 0 0 0 0 0 0 0 0 0 0 0 0 0 0 0 0 0 0 0 0 0 0 0 0 0 0 0 1 1 1 0 0 0 0 0 0 0
0 0 0 0 0 0 0 0 0 0 0 0 0 0 0 0 0 0 0 0 0 0 0 0 0 0 0 0 0 0 0 0 0 0 0 1 1 0 0 0 0 0 0 0
0 0 0 0 0 0 0 0 0 0 0 0 0 0 0 0 0 0 0 0 0 0 0 0 0 0 0 0 0 0 0 0 0 0 0 0 0 0 0 0 0 0 0 0
0 0 0 0 0 0 0 0 0 0 0 0 0 0 0 0 0 0 0 0 0 0 0 0 0 0 0 0 0 0 0 0 0 0 0 0 0 0 0 0 0 0 0 0
0 0 0 0 0 0 0 0 0 0 0 0 0 0 0 0 0 0 0 0 0 0 0 0 0 0 0 0 0 0 0 0 0 0 0 0 0 0 0 0 0 0 0 0
0 0 0 0 0 0 0 0 0 0 0 0 0 0 0 0 0 0 0 0 0 0 0 0 0 0 0 0 0 0 0 0 0 0 0 0 0 0 0 0 0 0 0 0
0 0 0 0 0 0 0 0 0 0 0 0 0 0 0 0 0 0 0 0 0 0 0 0 0 0 0 0 0 0 0 0 0 0 0 0 0 0 0 0 0 0 0 0
0 0 0 0 0 0 0 0 0 0 0 0 0 0 0 0 0 0 0 0 0 0 0 0 0 0 0 0 0 0 0 0 0 0 0 0 0 0 0 0 0 0 0 0
0 0 0 0 0 0 0 0 0 0 0 0 0 0 0 0 0 0 0 0 0 0 0 0 0 0 0 0 0 0 0 0 0 0 0 0 0 0 0 0 0 0 0 0
0 0 0 0 0 0 0 0 0 0 0 0 0 0 0 0 0 0 0 0 0 0 0 0 0 0 0 0 0 0 0 0 0 0 0 0 0 0 0 0 0 0 0 0
0 0 0 0 0 0 0 0 0 0 0 0 0 0 0 0 0 0 0 0 0 0 0 0 0 0 0 0 0 0 0 0 0 0 0 0 0 0 0 0 0 0 0 0
0 0 0 0 0 0 0 0 0 0 0 0 0 0 0 0 0 0 0 0 0 0 0 0 0 0 0 0 0 0 0 0 0 0 0 0 0 0 0 0 0 0 0 0
0 0 0 0 0 0 0 0 0 0 0 0 0 0 0 0 0 0 0 0 0 0 0 0 0 0 0 0 0 0 0 0 0 0 0 0 0 0 0 0 0 0 0 0
0 0 0 0 0 0 0 0 0 0 0 0 0 0 0 0 0 0 0 0 0 0 0 0 0 0 0 0 0 0 0 0 0 0 0 0 0 0 0 0 0 0 0 0
0 0 0 0 0 0 0 0 0 0 0 0 0 0 0 0 0 0 0 0 0 0 0 0 0 0 0 0 0 0 0 0 0 0 0 0 0 0 0 0 0 0 0 0
0 0 0 0 0 0 0 0 0 0 0 0 0 0 0 0 0 0 0 0 0 0 0 0 0 0 0 0 0 0 0 0 0 0 0 0 0 0 0 0 0 0 0 0
0 0 0 0 0 0 0 0 0 0 0 0 0 0 0 0 0 0 0 0 0 0 0 0 0 0 0 0 0 0 0 0 0 0 0 0 0 0 0 0 0 0 0 0
0 0 0 0 0 0 0 0 0 0 0 0 0 0 0 0 0 0 0 0 0 0 0 0 0 0 0 0 0 0 0 0 0 0 0 0 0 0 0 0 0 0 0 0
0 0 0 0 0 0 0 0 0 0 0 0 0 0 0 0 0 0 0 0 0 0 0 0 0 0 0 0 0 0 0 0 0 0 0 0 0 0 0 0 0 0 0 0
0 0 0 0 0 0 0 0 0 0 0 0 0 0 0 0 0 0 0 0 0 0 0 0 0 0 0 0 0 0 0 0 0 0 0 0 0 0 0 0 0 0 0 0
0 0 0 0 0 0 0 0 0 0 0 0 0 0 0 0 0 0 0 0 0 0 0 0 0 0 0 0 0 0 0 0 0 0 0 0 0 0 0 0 0 0 0 0
0 0 0 0 0 0 0 0 0 0 0 0 0 0 0 0 0 0 0 0 0 0 0 0 0 0 0 0 0 0 0 0 0 0 0 0 0 0 0 0 0 0 0 0
0 0 0 0 0 0 0 0 0 0 0 0 0 0 0 0 0 0 0 0 0 0 0 0 0 0 0 0 0 0 0 0 0 0 0 0 0 0 0 0 0 0 0 0
0 0 0 0 0 0 0 0 0 0 0 0 0 0 0 0 0 0 0 0 0 0 0 0 0 0 0 0 0 0 0 0 0 0 0 0 0 0 0 0 0 0 0 0
0 0 0 0 0 0 0 0 0 0 0 0 0 0 0 0 0 0 0 0 0 0 0 0 0 0 0 0 0 0 0 0 0 0 0 0 0 0 0 0 0 0 0 0
0 0 0 0 0 0 0 0 0 0 0 0 0 0 0 0 0 0 0 0 0 0 0 0 0 0 0 0 0 0 0 0 0 0 0 0 0 0 0 0 0 0 0 0
Wind_Speed
2 4 3 6 7 4 3 3 4 4 2 3 7 11 12 7 6 8 8 8 9 9 7 6 7 7 6 6 7 7 7 6 5 3 3 2 2 2 1 1 2 2 2 2
3 3 5 3 3 2 2 2 3 4 2 2 5 11 10 8 8 9 10 10 10 8 6 6 6 6 7 8 7 8 8 7 6 4 3 2 3 2 2 1 2 2 2 2
6 3 3 3 2 3 3 4 4 3 4 2 4 9 6 5 4 5 7 8 8 9 10 8 8 8 7 8 8 8 8 8 6 5 3 2 2 1 1 1 2 2 3 2
2 2 1 3 3 4 4 3 3 2 1 4 1 6 8 4 5 5 7 7 8 7 7 8 8 8 9 9 7 7 7 7 6 6 5 6 4 4 4 3 2 2 3 3
3 1 2 3 3 4 3 1 2 1 1 3 1 3 10 3 5 7 7 8 7 7 7 8 9 9 8 7 6 6 6 6 7 7 7 6 4 3 2 2 2 3 2 3
2 1 2 3 1 2 2 3 3 4 3 3 4 4 9 5 7 5 5 6 6 6 6 6 6 6 5 5 5 6 6 6 7 7 7 7 6 5 4 4 4 3 2 2
2 2 1 1 2 1 3 4 3 4 2 7 2 4 11 7 6 6 6 6 6 6 6 6 6 7 6 7 7 6 7 7 7 7 7 8 7 7 7 6 5 4 3 3
4 4 4 3 4 4 4 5 6 5 5 5 2 7 9 5 4 3 3 4 4 5 6 7 7 8 7 8 7 7 8 7 7 8 8 7 7 5 5 6 5 5 5 4
6 5 1 2 1 5 4 4 3 4 1 3 6 8 9 3 3 2 2 2 4 5 6 7 7 7 7 7 8 8 8 7 7 8 7 7 7 6 6 5 5 4 4 4
5 3 1 1 2 1 3 5 4 5 4 4 6 6 6 5 6 5 5 5 6 5 5 6 6 7 7 7 6 7 8 8 7 7 7 6 7 7 6 5 6 6 5 4
3 4 1 1 6 7 4 4 4 4 4 5 4 9 7 7 6 7 7 6 6 6 6 6 5 5 5 5 5 6 6 6 6 7 6 6 6 6 5 5 6 6 5 5
3 4 2 5 2 2 5 6 7 6 5 4 4 10 5 4 4 5 5 5 4 5 4 4 4 4 4 5 5 6 6 6 7 6 6 6 5 5 6 6 6 5 5 5
6 6 2 3 2 1 3 5 6 4 4 5 6 10 3 2 2 3 4 4 3 3 3 3 4 4 5 5 5 5 6 6 5 6 6 5 5 6 6 6 5 5 5 5
6 5 7 10 7 6 6 6 7 7 6 7 11 11 7 6 6 6 5 4 3 3 4 4 4 5 5 5 5 5 5 5 4 5 5 6 6 6 6 5 5 5 5 5
4 5 5 5 3 4 7 8 11 13 12 11 11 11 13 9 8 6 5 4 3 4 4 5 5 5 4 4 4 5 5 4 5 5 5 6 5 4 4 4 4 4 4 5
4 4 2 4 3 4 7 11 13 14 12 13 11 15 12 8 5 5 5 5 5 6 6 6 5 5 5 5 5 5 5 5 5 6 6 4 4 3 4 4 4 4 4 4
5 6 4 5 2 2 11 14 15 12 12 12 17 17 6 6 7 8 7 6 7 7 7 6 6 6 6 5 4 5 5 4 5 5 5 4 4 4 4 4 4 4 4 4
7 6 4 2 2 11 12 5 11 13 12 14 12 8 8 10 8 6 6 7 8 7 6 6 5 5 4 3 3 3 2 4 5 5 4 4 4 4 3 4 4 4 3 4
7 7 5 4 6 11 11 5 8 10 11 12 15 13 9 5 3 6 6 7 8 7 6 5 5 4 3 3 3 2 2 3 4 4 4 4 5 4 4 4 4 3 3 3
4 5 5 5 6 11 9 3 5 5 8 5 9 11 8 4 4 7 4 4 5 4 3 3 2 2 3 2 2 3 3 3 4 4 4 4 4 5 5 5 4 3 3 4
6 5 7 8 8 12 8 2 6 6 9 3 7 8 6 8 8 5 2 2 2 2 2 2 2 3 3 2 3 3 3 4 3 2 2 3 3 4 4 3 3 3 3 3
12 9 9 7 8 13 4 7 9 8 2 1 3 5 6 6 5 3 3 3 2 2 1 2 2 2 2 2 3 3 3 2 1 2 2 3 3 3 3 3 3 3 3 3
10 11 9 12 11 4 6 7 5 2 2 2 2 3 3 4 4 4 4 4 3 3 2 2 2 2 1 2 3 4 3 2 2 2 2 2 2 2 2 3 4 3 3 3
5 3 4 6 8 6 6 4 4 3 4 3 2 2 2 3 4 4 4 4 3 3 2 2 2 2 2 2 2 3 2 2 3 3 2 2 2 2 2 2 3 3 4 4
6 6 5 8 7 6 6 7 7 5 4 4 3 3 4 4 5 5 5 4 4 3 2 2 3 3 3 2 2 1 2 3 3 3 2 2 2 2 2 2 2 3 3 5
6 7 7 8 7 6 7 5 4 5 6 6 5 5 4 4 5 5 5 4 3 3 2 2 2 3 2 2 2 2 2 3 4 3 3 2 2 2 2 2 0 1 2 3
Wind_Direction
101 94 188 207 205 206 182 193 239 252 239 218 243 261 269 256 231 235 235 231 226 227 225 207 195 187 176 175 177 179 175 173 165 161 163 162 180 185 191 185 172 169 165 151
74 229 227 221 213 213 213 239 268 291 298 238 273 274 269 249 232 226 226 228 226 224 218 206 191 184 183 184 185 183 184 180 179 179 175 172 168 188 189 182 177 181 174 168
173 217 217 184 165 187 228 219 235 261 322 316 317 300 275 267 244 239 228 226 223 212 208 200 191 193 190 190 189 189 189 184 182 175 157 142 119 113 167 193 197 202 183 181
203 277 174 161 193 182 233 222 209 215 350 295 5 293 283 263 272 250 237 226 224 220 206 198 192 193 197 199 192 187 184 183 181 174 174 174 182 194 203 192 192 204 192 186
221 204 164 189 207 178 203 175 160 150 146 304 270 240 281 292 266 257 239 224 220 213 200 199 198 198 198 192 187 187 180 182 181 181 183 184 195 201 183 174 187 206 206 194
212 228 197 205 206 174 146 71 56 50 68 279 230 199 274 242 232 248 236 222 215 206 201 202 199 189 191 186 185 184 181 188 187 185 186 191 196 191 184 193 202 211 215 208
244 250 253 155 116 80 114 102 38 356 347 252 240 217 253 250 238 226 230 226 213 201 194 195 190 189 192 190 191 188 188 195 191 188 194 198 200 195 198 200 203 207 209 212
178 239 215 196 175 173 183 154 163 199 230 275 282 237 254 259 261 240 225 216 203 199 199 201 199 195 196 196 193 191 194 199 194 194 201 202 200 202 207 206 203 209 213 214
183 222 171 185 175 155 158 188 168 137 113 281 269 274 294 269 266 246 215 202 210 209 207 208 206 201 200 199 198 196 197 200 200 200 199 202 203 207 210 209 207 211 213 210
157 198 238 196 97 260 180 155 126 149 175 250 279 264 249 246 240 240 229 227 228 218 216 217 212 207 205 203 200 196 198 202 203 200 200 204 206 208 208 206 209 212 212 206
143 152 247 186 194 188 168 175 162 156 175 182 251 264 226 218 216 217 228 231 225 219 217 215 216 213 206 200 197 199 202 202 203 201 200 204 206 206 205 209 212 208 207 201
147 134 209 240 239 201 196 192 167 175 217 205 221 264 254 231 227 215 226 234 231 225 219 216 214 208 203 202 202 204 205 205 206 199 196 205 206 201 205 213 211 200 201 203
149 137 107 338 306 262 235 219 198 169 149 182 200 258 287 290 279 247 230 232 228 218 221 221 216 212 210 208 206 207 207 210 205 192 193 200 203 203 209 212 207 198 198 201
147 163 184 202 215 186 212 218 195 172 193 214 225 249 276 278 276 273 259 236 224 225 223 220 225 227 222 215 208 207 211 205 195 188 192 203 209 208 210 207 202 201 196 198
152 198 219 241 237 200 217 216 201 205 209 212 233 237 252 253 250 249 246 237 233 239 237 230 230 230 227 224 218 211 210 203 193 191 201 211 211 205 200 201 201 200 199 202
167 188 192 257 246 235 254 239 219 222 224 234 254 261 253 257 254 250 243 236 238 243 240 235 232 228 227 225 219 214 213 206 191 198 210 210 199 196 200 203 199 197 200 199
174 158 170 246 269 347 260 228 206 211 213 205 229 244 250 251 243 236 235 232 233 239 239 233 229 225 224 220 211 215 215 200 191 200 205 199 194 200 205 200 194 198 202 196
173 166 174 198 146 237 244 206 192 209 227 218 232 244 237 239 245 242 230 227 239 243 241 237 231 227 223 206 199 204 196 190 192 199 202 199 194 202 201 195 202 204 199 201
191 172 173 178 224 267 281 232 183 198 245 222 229 243 247 250 288 274 243 227 230 232 231 229 223 215 203 196 188 172 185 193 197 205 209 204 195 197 196 203 208 201 197 205
188 176 176 186 205 237 249 225 175 150 260 231 214 235 238 197 241 261 253 234 235 234 226 218 206 186 189 195 166 168 191 198 215 216 215 208 197 196 202 208 205 199 194 201
175 188 199 207 228 254 253 197 130 180 244 224 204 218 203 202 223 253 269 255 249 237 221 192 181 191 201 184 167 186 197 219 229 222 211 207 204 202 203 201 195 190 190 184
179 182 193 185 219 247 204 143 183 219 256 210 213 214 210 227 247 257 263 265 258 253 222 177 182 204 195 173 176 199 221 226 191 182 199 208 208 202 190 186 189 183 179 181
202 195 190 197 217 244 171 189 216 213 235 249 245 248 220 234 252 262 262 257 254 242 226 195 188 199 206 193 187 203 224 191 166 177 201 208 205 202 190 184 183 180 183 190
237 216 197 240 252 248 237 251 263 241 243 256 254 259 229 243 259 266 268 263 256 247 228 202 182 208 233 229 224 212 204 184 168 185 204 200 192 199 195 188 184 188 193 197
213 183 210 246 267 287 263 241 246 252 256 264 269 256 241 244 264 262 261 258 249 248 241 200 203 224 236 224 236 223 193 175 179 190 200 199 196 193 195 201 204 205 216 207
198 193 201 234 236 232 256 258 242 242 248 246 253 269 263 240 250 258 257 256 247 238 220 212 220 228 239 230 241 236 201 182 181 191 196 193 190 194 192 187 234 244 230 227